Simultaneous Nadir Overpasses (SNOs) Predictions

Prediction of SNOs between AQUA and GOES-15 Satellite Orbit:

Table of predicted SNOs for the next 14.0 days since TLE Epoch: 10/15/2022
Index Date Time (AQUA) AQUA Lat,Lon GOES-15 Lat,Lon Distance(km) Time Diff (sec)
1 10/16/2022 10:08:15 -0.15,-126.78 0.21,-128.41 185.38 80
2 10/16/2022 22:29:29 -0.95,-131.93 -0.19,-128.34 407.94 80
3 10/18/2022 22:16:39 -0.27,-128.80 -0.19,-128.35 51.24 80
4 10/20/2022 22:03:48 0.39,-125.67 -0.19,-128.36 305.50 80
5 10/21/2022 10:24:54 0.66,-130.79 0.17,-128.44 267.60 80
6 10/23/2022 10:12:02 0.03,-127.66 0.17,-128.44 89.06 80
7 10/25/2022 09:59:10 -0.64,-124.52 0.18,-128.45 445.40 80
8 10/25/2022 22:20:24 -0.43,-129.68 -0.16,-128.37 148.76 80
9 10/27/2022 22:07:31 0.22,-126.54 -0.16,-128.36 206.83 80
10 10/28/2022 10:28:37 0.80,-131.66 0.14,-128.44 366.05 80
